Location: Newark
(43.6583°N, 1.6617°E)
Time: 22:19:40
(UTC+00:00)

Tiros 1 - Pass Details

Date: 30 August 2019
Orbit: 630 x 664 km, 48.4° (Epoch: 20 September)

Event Time Altitude Azimuth Distance (km) Brightness Sun altitude
Exits shadow 02:53:10 25° 148° (SSE) 1,274 8.5 -23.4°
Drops below altitude 10° 02:55:17 10° 137° (SE) 2,028 9.7 -23.1°
Sets 02:57:39 0° 133° (SE) 2,940 10.6 -22.8°
